Location: Milton Keynes
(52.0316°N, 0.7531°W)
Time: 11:44:49
(UTC+01:00)

N. Korean satellite - Pass Details

Date: 26 January 2019
Orbit: 457 x 508 km, 97.2° (Epoch: 21 April)

Event Time Altitude Azimuth Distance (km) Brightness Sun altitude
Rises 05:31:55 0° 24° (NNE) 2,620 10.5 -21.3°
Reaches altitude 10° 05:34:24 10° 40° (NE) 1,723 9.8 -21.0°
Maximum altitude 05:37:19 22° 92° (E) 1,147 9.3 -20.5°
Drops below altitude 10° 05:40:11 10° 144° (SE) 1,690 9.8 -20.1°
Sets 05:42:35 0° 161° (SSE) 2,556 10.6 -19.7°
